• In Belarus
  • List of Countries
  • For 7 days
  • Water Temperature
  • Satellite Maps
  • Weather Map
  • Weather Widgets
  • user-avatar
    Login

    Hourly Weather Tynda

    Today, 18 June, Monday

    Time Temperature Precipitation Wind Pressure Humidity
    00:00 +12°C° 0 mm 1 mps 697 mmHg 79%
    01:00 +11°C° 0 mm 1 mps 697 mmHg 82%
    02:00 +10°C° 0 mm 1 mps 696 mmHg 84%
    03:00 +11°C° 0 mm 1 mps 697 mmHg 82%
    04:00 +12°C° 0 mm 1 mps 697 mmHg 80%
    05:00 +12°C° 0 mm 1 mps 697 mmHg 78%
    06:00 +15°C° 0 mm 1 mps 697 mmHg 69%
    07:00 +19°C° 0 mm 1 mps 698 mmHg 61%
    08:00 +20°C° 0 mm 1 mps 699 mmHg 55%
    09:00 +20°C° 0.6 mm 2 mps 699 mmHg 57%
    10:00 +20°C° 0.6 mm 2 mps 698 mmHg 59%
    11:00 +20°C° 0.6 mm 3 mps 698 mmHg 61%
    12:00 +20°C° 1.2 mm 3 mps 698 mmHg 64%
    13:00 +19°C° 1.2 mm 3 mps 698 mmHg 67%
    14:00 +19°C° 1.2 mm 3 mps 698 mmHg 69%
    15:00 +18°C° 0.7 mm 2 mps 698 mmHg 69%
    16:00 +18°C° 0.7 mm 2 mps 698 mmHg 70%
    17:00 +19°C° 0.7 mm 1 mps 698 mmHg 70%
    18:00 +16°C° 0.1 mm 1 mps 698 mmHg 72%
    19:00 +15°C° 0.1 mm 1 mps 698 mmHg 75%
    20:00 +14°C° 0.1 mm 2 mps 698 mmHg 77%
    21:00 +13°C° 0 mm 2 mps 698 mmHg 79%
    22:00 +10°C° 0 mm 2 mps 698 mmHg 80%
    23:00 +9°C° 0 mm 2 mps 698 mmHg 81%

    Tomorrow, 19 June, Tuesday

    Time Temperature Precipitation Wind Pressure Humidity
    00:00 +9°C° 0 mm 2 mps 698 mmHg 82%
    01:00 +9°C° 0 mm 2 mps 698 mmHg 82%
    02:00 +9°C° 0 mm 2 mps 698 mmHg 83%
    03:00 +9°C° 0 mm 2 mps 698 mmHg 83%
    04:00 +10°C° 0 mm 1 mps 698 mmHg 82%
    05:00 +10°C° 0 mm 1 mps 698 mmHg 81%
    06:00 +12°C° 0 mm 2 mps 698 mmHg 74%
    07:00 +13°C° 0 mm 3 mps 698 mmHg 66%
    08:00 +14°C° 0 mm 3 mps 698 mmHg 59%
    09:00 +16°C° 0 mm 3 mps 698 mmHg 53%
    10:00 +18°C° 0 mm 4 mps 698 mmHg 47%
    11:00 +19°C° 0 mm 4 mps 698 mmHg 41%
    12:00 +19°C° 0 mm 4 mps 698 mmHg 41%
    13:00 +20°C° 0 mm 4 mps 698 mmHg 41%
    14:00 +20°C° 0 mm 4 mps 698 mmHg 40%
    15:00 +19°C° 0 mm 3 mps 698 mmHg 44%
    16:00 +19°C° 0 mm 3 mps 698 mmHg 48%
    17:00 +18°C° 0 mm 3 mps 698 mmHg 52%
    18:00 +17°C° 0 mm 3 mps 698 mmHg 58%
    19:00 +15°C° 0 mm 2 mps 698 mmHg 65%
    20:00 +14°C° 0 mm 1 mps 698 mmHg 72%
    21:00 +12°C° 0 mm 1 mps 698 mmHg 74%
    22:00 +10°C° 0 mm 2 mps 698 mmHg 77%
    23:00 +9°C° 0 mm 2 mps 698 mmHg 80%

    Day after tomorrow, 20 June, Wednesday

    Time Temperature Precipitation Wind Pressure Humidity
    00:00 +10°C° 0 mm 1 mps 699 mmHg 80%
    01:00 +10°C° 0 mm 1 mps 699 mmHg 80%
    02:00 +9°C° 0 mm 1 mps 699 mmHg 81%
    03:00 +10°C° 0 mm 1 mps 699 mmHg 80%
    04:00 +10°C° 0 mm 1 mps 699 mmHg 78%
    05:00 +11°C° 0 mm 1 mps 699 mmHg 77%
    06:00 +13°C° 0 mm 1 mps 699 mmHg 68%
    07:00 +15°C° 0 mm 2 mps 699 mmHg 58%
    08:00 +18°C° 0 mm 2 mps 699 mmHg 49%
    09:00 +19°C° 0 mm 2 mps 699 mmHg 44%
    10:00 +20°C° 0 mm 2 mps 699 mmHg 39%
    11:00 +21°C° 0 mm 2 mps 698 mmHg 34%
    12:00 +23°C° 0 mm 2 mps 698 mmHg 33%
    13:00 +23°C° 0 mm 2 mps 698 mmHg 32%
    14:00 +24°C° 0 mm 2 mps 697 mmHg 31%
    15:00 +23°C° 0.1 mm 2 mps 697 mmHg 38%
    16:00 +22°C° 0.1 mm 1 mps 697 mmHg 44%
    17:00 +21°C° 0.1 mm 1 mps 696 mmHg 51%
    18:00 +19°C° 1.1 mm 1 mps 696 mmHg 64%
    19:00 +15°C° 1.1 mm 1 mps 696 mmHg 76%
    20:00 +13°C° 1.1 mm 2 mps 696 mmHg 89%
    21:00 +12°C° 0.9 mm 2 mps 696 mmHg 90%
    22:00 +12°C° 0.9 mm 2 mps 696 mmHg 91%
    23:00 +12°C° 0.9 mm 2 mps 696 mmHg 93%

    21 June, Thursday

    Time Temperature Precipitation Wind Pressure Humidity
    00:00 +10°C° 0.7 mm 2 mps 696 mmHg 93%
    01:00 +10°C° 0.7 mm 2 mps 696 mmHg 93%
    02:00 +11°C° 0.7 mm 1 mps 697 mmHg 93%
    03:00 +11°C° 0 mm 1 mps 697 mmHg 92%
    04:00 +11°C° 0 mm 1 mps 697 mmHg 91%
    05:00 +10°C° 0 mm 2 mps 697 mmHg 91%
    06:00 +13°C° 0 mm 2 mps 697 mmHg 81%
    07:00 +16°C° 0 mm 2 mps 698 mmHg 72%
    08:00 +18°C° 0 mm 2 mps 698 mmHg 63%
    09:00 +19°C° 0.1 mm 2 mps 698 mmHg 57%
    10:00 +20°C° 0.1 mm 2 mps 698 mmHg 51%
    11:00 +22°C° 0.1 mm 3 mps 698 mmHg 44%
    12:00 +22°C° 0.2 mm 3 mps 698 mmHg 44%
    13:00 +22°C° 0.2 mm 3 mps 697 mmHg 44%
    14:00 +22°C° 0.2 mm 3 mps 697 mmHg 44%
    15:00 +22°C° 0.1 mm 3 mps 697 mmHg 46%
    16:00 +21°C° 0.1 mm 3 mps 697 mmHg 48%
    17:00 +21°C° 0.1 mm 3 mps 697 mmHg 50%
    18:00 +19°C° 0 mm 2 mps 697 mmHg 57%
    19:00 +17°C° 0 mm 2 mps 697 mmHg 63%
    20:00 +16°C° 0 mm 2 mps 697 mmHg 70%
    21:00 +14°C° 0.1 mm 2 mps 697 mmHg 74%
    22:00 +13°C° 0.1 mm 2 mps 696 mmHg 79%
    23:00 +12°C° 0.1 mm 2 mps 696 mmHg 83%

    22 June, Friday

    Time Temperature Precipitation Wind Pressure Humidity
    00:00 +10°C° 0 mm 2 mps 696 mmHg 86%
    01:00 +9°C° 0 mm 2 mps 697 mmHg 89%
    02:00 +9°C° 0 mm 2 mps 697 mmHg 92%
    03:00 +9°C° 0 mm 2 mps 697 mmHg 89%
    04:00 +11°C° 0 mm 1 mps 697 mmHg 86%
    05:00 +12°C° 0 mm 1 mps 698 mmHg 83%
    06:00 +14°C° 0 mm 2 mps 698 mmHg 74%
    07:00 +17°C° 0 mm 2 mps 698 mmHg 64%
    08:00 +19°C° 0 mm 2 mps 699 mmHg 55%
    09:00 +20°C° 0.1 mm 2 mps 699 mmHg 52%
    10:00 +21°C° 0.1 mm 3 mps 699 mmHg 49%
    11:00 +22°C° 0.1 mm 3 mps 699 mmHg 45%
    12:00 +22°C° 0.2 mm 3 mps 699 mmHg 46%
    13:00 +23°C° 0.2 mm 2 mps 699 mmHg 46%
    14:00 +23°C° 0.2 mm 2 mps 699 mmHg 46%
    15:00 +23°C° 0.1 mm 2 mps 699 mmHg 47%
    16:00 +23°C° 0.1 mm 2 mps 699 mmHg 48%
    17:00 +23°C° 0.1 mm 2 mps 699 mmHg 50%
    18:00 +20°C° 0 mm 2 mps 699 mmHg 56%
    19:00 +19°C° 0 mm 1 mps 699 mmHg 62%
    20:00 +18°C° 0 mm 1 mps 699 mmHg 68%
    21:00 +15°C° 0 mm 1 mps 700 mmHg 71%
    22:00 +14°C° 0 mm 1 mps 700 mmHg 74%
    23:00 +12°C° 0 mm 1 mps 700 mmHg 77%

    23 June, Saturday

    Time Temperature Precipitation Wind Pressure Humidity
    00:00 +12°C° 0 mm 1 mps 700 mmHg 78%
    01:00 +11°C° 0 mm 1 mps 700 mmHg 80%
    02:00 +11°C° 0 mm 1 mps 700 mmHg 81%
    03:00 +11°C° 0 mm 1 mps 700 mmHg 79%
    04:00 +12°C° 0 mm 1 mps 701 mmHg 76%
    05:00 +13°C° 0 mm 1 mps 701 mmHg 73%
    06:00 +16°C° 0 mm 1 mps 702 mmHg 66%
    07:00 +19°C° 0 mm 1 mps 702 mmHg 58%
    08:00 +22°C° 0 mm 1 mps 702 mmHg 51%
    09:00 +23°C° 0 mm 1 mps 702 mmHg 47%
    10:00 +25°C° 0 mm 1 mps 702 mmHg 43%
    11:00 +26°C° 0 mm 1 mps 702 mmHg 38%
    12:00 +26°C° 0 mm 1 mps 702 mmHg 39%
    13:00 +25°C° 0 mm 1 mps 702 mmHg 40%
    14:00 +25°C° 0 mm 1 mps 701 mmHg 41%
    15:00 +24°C° 0 mm 1 mps 701 mmHg 42%
    16:00 +24°C° 0 mm 1 mps 702 mmHg 43%
    17:00 +24°C° 0 mm 1 mps 702 mmHg 44%
    18:00 +22°C° 0 mm 1 mps 702 mmHg 51%
    19:00 +18°C° 0 mm 0 mps 701 mmHg 58%
    20:00 +16°C° 0 mm 0 mps 701 mmHg 65%
    21:00 +15°C° 0 mm 0 mps 702 mmHg 68%
    22:00 +14°C° 0 mm 0 mps 702 mmHg 70%
    23:00 +14°C° 0 mm 1 mps 702 mmHg 72%
    Show more